Home   Weather   Ghent   Past weeks

Flag for Belgium Past Weather in Ghent, Belgium — Yesterday and Last 2 Weeks

Now
33 °F

Duststorm.


Feels Like: N/A
Forecast: 29 / 37 °F
Wind: N/A

Location: Munte

Current Time: Dec 3, 2016 at 8:05:41 am

Latest Report: Dec 3, 2016 at 7:00 am


Visibility: 0 mi

Pressure: 30.29 "Hg

Humidity: 97%

Dew Point: 32 °F

Location of GhentLocation

Past Weather in Ghent — Graph

°F

Ghent Temperature Yesterday

Maximum temperature yesterday: 48 °F (at 3:00 pm)
Minimum temperature yesterday: 41 °F (at 11:00 pm)
Average temperature yesterday: 44 °F

High & Low Weather Summary for the Past Weeks

 TemperatureHumidityPressure
High59 °F (Nov 21, 2:00 pm)99% (Nov 27, 2:00 am)30.58 "Hg (Nov 27, 2:00 am)
Low25 °F (Nov 30, 6:00 am)54% (Nov 29, 2:00 pm)29.06 "Hg (Nov 20, 9:00 am)
Average42 °F82%30.05 "Hg
* Reported Nov 18 7:00 am — Dec 3 7:00 am, Ghent, Weather by CustomWeather, © 2016

Note: Actual official high and low records may vary slightly from our data, if they occured in-between our weather recording intervals... More about our weather records

Advertising

Ghent Weather History for the Previous 24 Hours

Scroll right to see more
 ConditionsComfort  
Time TempWeatherWind HumidityBarometerVisibility
7:00 am
Sat, Dec 3
33 °FDuststorm.N/A97%30.29 "Hg0 mi
6:00 am33 °FFog.2 mph95%30.28 "Hg3 mi
5:00 am34 °FFog.2 mph94%30.27 "Hg2 mi
4:00 am35 °FFog.2 mph92%30.27 "Hg2 mi
3:00 am35 °FChilly.2 mph91%30.28 "Hg3 mi
2:00 am36 °FChilly.N/A90%30.28 "Hg4 mi
1:00 am38 °FChilly.N/A90%30.27 "Hg6 mi
12:00 am39 °FChilly.N/A89%30.28 "Hg6 mi
11:00 pm
Fri, Dec 2
41 °FQuite cool.2 mph86%30.27 "Hg7 mi
10:00 pm44 °FQuite cool.2 mph89%30.27 "Hg5 mi
9:00 pm44 °FFog.N/A91%30.27 "Hg3 mi
7:00 pm46 °FCool.2 mph92%30.27 "Hg8 mi
6:00 pm46 °FCool.2 mph92%30.26 "Hg9 mi
5:00 pm47 °FCool.N/A87%30.25 "Hg10 mi
4:00 pm47 °FCool.N/A87%30.25 "Hg11 mi
3:00 pm48 °FCool.N/A81%30.27 "Hg12 mi
2:00 pm48 °FCool.2 mph80%30.27 "Hg12 mi
1:00 pm48 °FCool.2 mph84%30.28 "Hg12 mi
12:00 pm47 °FCool.2 mph87%30.29 "Hg11 mi
11:00 am46 °FCool.N/A85%30.29 "Hg11 mi
10:00 am45 °FQuite cool.N/A93%30.29 "Hg4 mi
9:00 am43 °FFog.N/A96%30.28 "Hg2 mi
8:00 am42 °FFog.N/A97%30.27 "Hg1 mi
Weather by CustomWeather, © 2016

See weather overviewHow to use our weather pages